www.pogodaiklimat.ru

Погода и климат >> Архив погоды >> Россия >> Красноярский край >> Игарка


АРХИВ ПОГОДЫ в Игарке

Время (UTC), дата Ветер
(напр.,м/с)
 
Видим.   Явления Облачность Т
(С)
Тd
(С)
f
(%)
Тe
(С)
Тes
(С)
Комфортность P
(гПа)
Po
(гПа)
Тmin
(С)
Tmax
(С)
R
(мм)
R24
(мм)
S
(см)
12 14.04 СЗ 6
{10}
20 км позёмок {снег} 9/0
[Cs]
-14.4 -17.9 75 -24 -24 1010.0 1006.2 -5.6 0.0
15 14.04 СЗ 6
{11}
10 км слаб. снег {метель} 9/0
[Cs]
-18.2 -21.5 75 -29 -29 1011.2 1007.4
18 14.04 СЗ 4
{11}
10 км {снег, метель} 4/0
[Ci fib]
-21.5 -24.8 75 -31 -31 опасность
обморожения
1012.4 1008.6
21 14.04 СЗ 1 10 км 4/0
[Ci fib]
-24.6 -27.2 79 -28 -28 1013.0 1009.1
00 15.04 СЗ 2 20 км 3/0
[Ci fib]
-25.5 -29.4 70 -32 -32 опасность
обморожения
1013.9 1010.0 -26.8 0.0 85
03 15.04 З 3 20 км 1/0
[Ci fib]
-21.2 -25.2 70 -29 -26 1014.0 1010.2
06 15.04 З 3 20 км ясно -17.3 -22.3 65 -24 -19 1014.3 1010.5
09 15.04 СЗ 2 20 км 3/0
[Ci fib]
-15.5 -21.5 60 -21 -16 1014.9 1011.1
12 15.04 З 1 20 км 8/0
[Ci fib]
-15.4 -21.4 60 -18 -17 1014.5 1010.7 -14.9
15 15.04 С 1 10 км 8/0
[Ci fib]
-24.0 -27.2 75 -27 -27 1013.5 1009.6
18 15.04 штиль 0 10 км 6/0
[Ci fib]
-24.6 -27.2 79 -25 -25 1012.8 1008.9
21 15.04 СВ 2 10 км 9/0
[Ci fib]
-24.9 -27.4 80 -32 -32 опасность
обморожения
1012.3 1008.4
00 16.04 СВ 2 20 км 9/0
[Cs]
-23.8 -26.3 80 -30 -30 1012.2 1008.3 -25.7 85
03 16.04 В 2 20 км 8/0
[Ci fib]
-16.8 -21.8 65 -22 -19 1011.6 1007.8
06 16.04 СВ 3 20 км 9/0
[Ci fib]
-11.9 -19.1 55 -18 -13 1011.5 1007.8
09 16.04 В 3 20 км 8/0
[Ci fib]
-10.1 -18.6 50 -16 -13 1011.6 1007.9
12 16.04 В 3 20 км 6/0
[Ci fib]
-11.4 -19.8 50 -17 -17 1012.0 1008.3 -10.0
15 16.04 СВ 2 10 км 6/0
[Ci fib]
-16.0 -21.1 65 -21 -21 1012.4 1008.6
18 16.04 СВ 2 10 км 8/0
[Ac trans Ci fib]
-17.4 -21.6 70 -23 -23 1012.0 1008.2
21 16.04 С 2 10 км слаб. снег 9/0
[Ac trans Cs]
-19.3 -21.9 80 -25 -25 1012.1 1008.3
00 17.04 С 2 20 км в посл. час снег 9/0
[Ac trans Cs]
-21.6 -24.8 75 -28 -27 1011.8 1008.0 -21.8 0.0 85
03 17.04 С 2 20 км в посл. час снег 9/0
[Cs]
-16.9 -21.9 65 -22 -19 1011.4 1007.6
06 17.04 С 3 20 км {снег} 4/0
[Ci fib]
-10.3 -17.6 55 -16 -11 1010.6 1006.9
09 17.04 СВ 4 20 км 8/0
[Ci fib]
-8.8 -16.7 53 -15 -13 1010.1 1006.4
12 17.04 С 3 20 км 8/0
[Ci fib]
-9.7 -17.5 53 -15 -15 1010.7 1006.4 -8.6 0.0
15 17.04 С 5 10 км 6/0
[Ci fib]
-14.8 -20.8 60 -24 -24 1009.5 1005.7
18 17.04 С 4 10 км 4/0
[Ci fib]
-19.2 -22.5 75 -28 -28 1008.2 1004.4
21 17.04 С 3 10 км 3/0
[Ci fib]
-20.6 -23.9 75 -28 -28 1006.8 1003.0
00 18.04 С 5 20 км 6/0
[Ac trans Ci fib]
-20.3 -23.6 75 -30 -30 1005.6 1001.8 -21.1 83
03 18.04 С 4 20 км 9/0
[Ac trans Cs]
-15.4 -21.4 60 -23 -21 1004.6 1000.9
06 18.04 С 4 20 км 9/0
[Ac trans Cs]
-10.2 -17.5 55 -17 -14 1003.6 1000.0
09 18.04 С 5 20 км 9/0
[Ac trans Cs]
-8.7 -17.2 50 -16 -14 1004.4 1000.8
12 18.04 С 5
{10}
20 км 6/0
[Ac trans Ci fib]
-11.5 -17.7 60 -19 -19 1005.6 1002.0 -8.3
15 18.04 СЗ 5
{11}
10 км 4/0
[Ac trans Ci fib]
-16.1 -20.3 70 -25 -25 1006.6 1002.9
18 18.04 СЗ 3
{10}
10 км слаб. снег 9/0
[Ac trans Cs]
-19.0 -21.6 80 -26 -26 1006.9 1003.1
21 18.04 СЗ 3 10 км слаб. снег 9/0
[Ac trans Cs]
-21.2 -23.7 80 -29 -29 1007.2 1003.4
00 19.04 С 3 20 км {снег} 9/0
[Ac trans Cs]
-22.9 -25.5 79 -31 -31 опасность
обморожения
1008.6 1004.7 -23.1 0.2 83
03 19.04 СЗ 3 20 км 4/0
[Ci fib]
-18.2 -22.3 70 -25 -22 1008.9 1005.1
06 19.04 СЗ 2 20 км 3/0
[Ci fib]
-12.6 -18.8 60 -17 -10 1008.9 1005.1
09 19.04 З 3 20 км 1/0
[Ci fib]
-9.1 -17.9 49 -15 -10 1009.4 1005.7
12 19.04 З 3 20 км 1/0
[Ci fib]
-10.6 -19.0 50 -16 -15 1010.1 1006.4 -9.0
15 19.04 СЗ 3 10 км ясно -13.8 -19.0 65 -20 -20 1010.4 1006.6
18 19.04 штиль 0 10 км ясно -22.0 -23.9 84 -22 -22 1009.8 1006.0
21 19.04 С 1 10 км ясно -21.3 -23.8 80 -24 -24 1009.3 1005.5
00 20.04 С 1 20 км 3/0
[Ci fib]
-22.6 -25.1 80 -26 -25 1009.1 1005.2 -23.7 82
03 20.04 штиль 0 20 км 9/0
[Ac trans Cs]
-15.9 -21.9 60 -16 -11 1008.6 1004.9
06 20.04 З 2 20 км 9/0
[Cs]
-10.1 -18.6 50 -14 -8 1008.1 1004.5
09 20.04 С 2 20 км 9/0
[Cs]
-6.8 -15.9 48 -11 -6 1008.0 1004.4
12 20.04 С 3 20 км 9/0
[Cs]
-7.6 -16.0 51 -13 -12 1008.5 1004.9 -10.9
15 20.04 С 3 10 км 6/0
[Ac trans Ci fib]
-14.0 -20.1 60 -20 -20 1008.8 1005.0
18 20.04 СЗ 2 10 км 4/0
[Ac trans Ci fib]
-17.9 -21.3 75 -23 -23 1008.1 1004.3
21 20.04 СЗ 2 10 км 4/0
[Ac trans Ci fib]
-20.4 -22.3 85 -26 -26 1007.6 1003.8
00 21.04 СЗ 2 20 км 3/0
[Ci fib]
-20.6 -23.1 80 -27 -26 1007.5 1003.7 -21.2 82
03 21.04 СЗ 3 20 км 6/0
[Ci fib]
-14.3 -19.4 65 -21 -17 1007.6 1003.9
06 21.04 СЗ 3 20 км 6/0
[Ci fib]
-7.0 -16.9 45 -12 -7 1007.4 1003.8
09 21.04 З 4 20 км 8/0
[Ci fib]
-6.4 -16.5 45 -12 -9 1008.5 1004.9

 

Местоположение метеостанции Игарка (Красноярский край, Россия): широта 67.47 долгота 86.57 высота над уровнем моря 28 м.

В архиве по умолчанию представлена погода в Игарке за последнюю неделю. Архивные данные за месяц целиком и за предыдущие месяцы, начиная с января 2011 года, Вы можете получить, выбрав интересующий диапазон дат из раскрывающегося списка и нажав кнопку "Ввод!".


*Определитесь, кто Вы:
робот инопланетянин человек

Внимание! Время в таблицах - всемирное. Для получения местного времени необходимо прибавить поправку, которая равна 7 ч.

Смотрите также архив погоды в соседних городах и на ближайших метеорологических станциях:

Погода в Горбиачине (Красноярский край, Россия) (54 км)
Погода в Снежногорске (Красноярский край, Россия) (86 км)
Погода в Светлогорске (Красноярский край, Россия) (98 км)
Погода в Курейке (Красноярский край, Россия) (115 км)
Погода в Потапово (Красноярский край, Россия) (134 км)
Погода в Советской Речке (Красноярский край, Россия) (140 км)
Погода в Туруханске (Красноярский край, Россия) (197 км)
Погода в Норильске (Красноярский край, Россия) (219 км)
Погода в Большом Пороге (Эвенкия, Россия) (256 км)
Погода в Красноселькупске (Ямало-Ненецкий АО, Россия) (268 км)

Пояснения к столбцам:

Ветер - указаны скорость ветра в м/с - средняя за 10 мин, порывы в срок и между сроками (в фигурных скобках) и направление, откуда дует ветер: С - северный, СВ - северо-восточный, В - восточный, ЮВ - юго-восточный, Ю - южный, ЮЗ - юго-западный, З - западный, СЗ - северо-западный.
Видимость - горизонтальная дальность видимости в метрах или километрах. При видимости от 1 до 10 км при отсутствии осадков обычно наблюдается дымка, при ухудшении видимости до 1 км и менее - туман. В сухую погоду видимость может ухудшаться дымом, пылью или мглою.
Явления - указаны атмосферные явления, наблюдавшиеся в срок или в последний час перед сроком; фигурными скобками обозначены явления, наблюдавшиеся между сроками (за 1-3 часа до срока); квадратными скобками обозначены град или гололедные отложения с указанием их диаметра в мм.
Облачность - указаны через наклонную черту общая и нижняя облачность в баллах и высота нижней границы облаков в метрах; квадратными скобками обозначены формы облаков: Ci - перистые, Cs - перисто-слоистые, Cc - перисто-кучевые, Ac - высококучевые, As - высокослоистые, Sc - слоисто-кучевые, Ns - слоисто-дождевые, Cu - кучевые, Cb - кучево-дождевые. Подробнее классификацию облаков см. в Атласе облаков (PDF).
T - Температура воздуха - температура, измеренная на высоте 2 м над землей.
Td - Температура точки росы - температура, при понижении до которой содержащийся в воздухе водяной пар достигнет насыщения.
f - Относительная влажность воздуха - влажноcть воздуха, измеренная на высоте 2 м над землей.
Te - Эффективная температура - температура, которую ощущает одетый по сезону человек в тени. Характеристика душности погоды. При расчете учитывается влияние влажности воздуха и скорости ветра на теплоощущения человека.
Tes - Эффективная температура на солнце - температура, которую ощущает человек, с поправкой на солнечный нагрев. Характеристика знойности погоды. Зависит от высоты солнца над горизонтом, облачности и скорости ветра. Ночью, в пасмурную погоду, а также при ветре 12 м/с и более поправка равна нулю.
P - Атмосферное давление - приведенное к уровню моря атмосферное давление.
Po - Атмосферное давление - измеренное на уровне метеостанции атмосферное давление.
Tmin - Минимальная температура - минимум температуры воздуха на высоте 2 м над землей.
Tmax - Максимальная температура - максимум температуры воздуха на высоте 2 м над землей.
R - Количество осадков - Количество выпавших осадков за период времени, мм. При наведении курсора мыши на число - период времени, за который выпало указанное количество осадков.
R24 - Количество осадков - Количество выпавших осадков за 24 часа, мм.
S - Снежный покров - Высота снежного покрова, см. При наведении курсора мыши на число - состояние снежного покрова и степень покрытия местности в баллах.